Weather History for Fort Payne, AL

Change the Weather History Date:

Wednesday, November 21, 2012

  Actual Average (KRMG) Record (KRMG)
Temperature  
Mean Temperature 50 °F 49 °F  
Max Temperature 64 °F 61 °F 75 °F (2007)
Min Temperature 37 °F 37 °F 19 °F (2008)
Degree Days  
Heating Degree Days 14 16  
Month to date heating degree days 270  
Since 1 July heating degree days 447  
Moisture  
Dew Point 40 °F    
Average Humidity 82    
Maximum Humidity 93    
Minimum Humidity 40    
Precipitation  
Precipitation 0.00 in 0.19 in 1.86 in (2005)
Month to date precipitation 3.17  
Snow  
Snow 0.00 in - - ()
Month to date snowfall  
Since 1 July snowfall  
Since 1 September snowfall  
Snow Depth -    
Sea Level Pressure  
Sea Level Pressure 30.15 in    
Wind  
Wind Speed 1 mph (NE)    
Max Wind Speed 9 mph    
Max Gust Speed -    
Visibility 9 miles    
Events      
T = Trace of Precipitation, MM = Missing Value Source: NWS Daily Summary

Daily Weather History Graph

Daily Weather History Graph

Search for Another Location

Airport:

Trip Planner

Search our weather history database for the weather conditions in past years. The results will help you decide how hot, cold, wet, or windy it might be!

Date:

Astronomy

Nov. 21, 2012 Rise Set
Actual Time 6:22 AM CST 4:35 PM CST
Civil Twilight 5:55 AM CST 5:02 PM CST
Nautical Twilight 5:24 AM CST 5:32 PM CST
Astronomical Twilight 4:54 AM CST 6:02 PM CST
Moon 12:37 PM CST No Moon Set
Length of Visible Light 11h 06m
Length of Day
10h 12m
First Quarter, 62% of the Moon is Illuminated
Nov 21
First Quarter
Nov 28
Full
Dec 6
Last Quarter
Dec 13
New
Dec 19
First Quarter

Hourly Weather History & Observations

Time (CST) Temp. Dew Point Humidity Pressure Visibility Wind Dir Wind Speed Gust Speed Precip Events Conditions
12:15 AM 44.6 °F 41.0 °F 87% 30.12 in 10.0 mi Calm Calm - N/A   Overcast
12:35 AM 46.4 °F 41.0 °F 81% 30.11 in 10.0 mi Calm Calm - N/A   Overcast
12:55 AM 46.4 °F 41.0 °F 81% 30.11 in 10.0 mi Calm Calm - N/A   Overcast
1:15 AM 46.4 °F 41.0 °F 81% 30.11 in 10.0 mi Calm Calm - N/A   Overcast
1:35 AM 46.4 °F 41.0 °F 81% 30.11 in 10.0 mi Calm Calm - N/A   Overcast
1:55 AM 46.4 °F 41.0 °F 81% 30.11 in 10.0 mi Calm Calm - N/A   Mostly Cloudy
2:15 AM 44.6 °F 41.0 °F 87% 30.11 in 10.0 mi Calm Calm - N/A   Mostly Cloudy
2:35 AM 44.6 °F 41.0 °F 87% 30.12 in 10.0 mi Calm Calm - N/A   Overcast
2:55 AM 44.6 °F 41.0 °F 87% 30.11 in 10.0 mi Calm Calm - N/A   Mostly Cloudy
3:15 AM 42.8 °F 41.0 °F 93% 30.11 in 10.0 mi Calm Calm - N/A   Clear
3:35 AM 42.8 °F 39.2 °F 87% 30.11 in 10.0 mi Calm Calm - N/A   Clear
3:55 AM 42.8 °F 39.2 °F 87% 30.12 in 10.0 mi Calm Calm - N/A   Clear
4:15 AM 41.0 °F 39.2 °F 93% 30.11 in 10.0 mi Calm Calm - N/A   Clear
4:35 AM 41.0 °F 37.4 °F 87% 30.11 in 10.0 mi Calm Calm - N/A   Clear
4:55 AM 41.0 °F 37.4 °F 87% 30.12 in 7.0 mi Calm Calm - N/A   Clear
5:15 AM 39.2 °F 35.6 °F 87% 30.13 in 7.0 mi Calm Calm - N/A   Clear
5:35 AM 37.4 °F 35.6 °F 93% 30.13 in 7.0 mi Calm Calm - N/A   Clear
5:55 AM 37.4 °F 35.6 °F 93% 30.14 in 7.0 mi Calm Calm - N/A   Clear
6:15 AM 37.4 °F 35.6 °F 93% 30.15 in 7.0 mi Calm Calm - N/A   Clear
6:35 AM 37.4 °F 35.6 °F 93% 30.16 in 5.0 mi Calm Calm - N/A   Clear
6:55 AM 37.4 °F 35.6 °F 93% 30.17 in 7.0 mi Calm Calm - N/A   Clear
7:15 AM - - N/A% 30.17 in 7.0 mi Calm Calm - N/A   Clear
7:35 AM - - N/A% 30.17 in 7.0 mi Calm Calm - N/A   Clear
7:55 AM - - N/A% 30.18 in 10.0 mi Calm Calm - N/A   Clear
8:15 AM - - N/A% 30.18 in 10.0 mi Calm Calm - N/A   Clear
8:35 AM - - N/A% 30.18 in 10.0 mi Calm Calm - N/A   Clear
8:55 AM - - N/A% 30.18 in 10.0 mi Calm Calm - N/A   Clear
9:15 AM - - N/A% 30.18 in 10.0 mi Calm Calm - N/A   Clear
9:35 AM - - N/A% 30.18 in 10.0 mi Calm Calm - N/A   Clear
9:55 AM - - N/A% 30.18 in 10.0 mi Calm Calm - N/A   Clear
10:15 AM - - N/A% 30.18 in 10.0 mi NE 5.8 mph - N/A   Clear
10:35 AM - - N/A% 30.17 in 10.0 mi ENE 3.5 mph - N/A   Clear
10:55 AM - - N/A% 30.16 in 10.0 mi ENE 3.5 mph - N/A   Clear
11:15 AM - - N/A% 30.16 in 10.0 mi East 3.5 mph - N/A   Clear
11:35 AM - - N/A% 30.15 in 10.0 mi ENE 5.8 mph - N/A   Clear
11:55 AM - - N/A% 30.15 in 10.0 mi ENE 8.1 mph - N/A   Scattered Clouds
12:15 PM - - N/A% 30.14 in 10.0 mi Calm Calm - N/A   Mostly Cloudy
12:35 PM - - N/A% 30.14 in 10.0 mi WNW 4.6 mph - N/A   Mostly Cloudy
12:55 PM - - N/A% 30.14 in 10.0 mi Calm Calm - N/A   Mostly Cloudy
1:15 PM - - N/A% 30.13 in 10.0 mi Calm Calm - N/A   Mostly Cloudy
1:35 PM - - N/A% 30.13 in 10.0 mi NE 6.9 mph - N/A   Mostly Cloudy
1:55 PM - - N/A% 30.13 in 10.0 mi Calm Calm - N/A   Scattered Clouds
2:15 PM - - N/A% 30.12 in 10.0 mi Calm Calm - N/A   Clear
2:35 PM - - N/A% 30.12 in 10.0 mi North 9.2 mph - N/A   Clear
2:55 PM - - N/A% 30.13 in 10.0 mi North 6.9 mph - N/A   Scattered Clouds
3:15 PM - - N/A% 30.13 in 10.0 mi Calm Calm - N/A   Scattered Clouds
3:35 PM - - N/A% 30.13 in 10.0 mi Calm Calm - N/A   Clear
3:55 PM - - N/A% 30.13 in 10.0 mi Calm Calm - N/A   Clear
4:15 PM 64.4 °F 39.2 °F 40% 30.13 in 10.0 mi Calm Calm - N/A   Clear
4:35 PM 60.8 °F 41.0 °F 48% 30.14 in 10.0 mi Calm Calm - N/A   Clear
4:55 PM 59.0 °F 42.8 °F 55% 30.14 in 10.0 mi Calm Calm - N/A   Clear
5:15 PM 55.4 °F 42.8 °F 63% 30.15 in 10.0 mi Calm Calm - N/A   Clear
5:35 PM 53.6 °F 42.8 °F 67% 30.15 in 10.0 mi Calm Calm - N/A   Clear
5:55 PM 51.8 °F 42.8 °F 71% 30.16 in 10.0 mi Calm Calm - N/A   Clear
6:15 PM 51.8 °F 42.8 °F 71% 30.16 in 10.0 mi Calm Calm - N/A   Scattered Clouds
6:35 PM 51.8 °F 42.8 °F 71% 30.17 in 10.0 mi Calm Calm - N/A   Mostly Cloudy
6:55 PM 51.8 °F 42.8 °F 71% 30.17 in 10.0 mi Calm Calm - N/A   Mostly Cloudy
7:15 PM 50.0 °F 42.8 °F 76% 30.17 in 10.0 mi Calm Calm - N/A   Scattered Clouds
7:35 PM 48.2 °F 42.8 °F 82% 30.18 in 10.0 mi Calm Calm - N/A   Scattered Clouds
7:55 PM 48.2 °F 42.8 °F 82% 30.18 in 10.0 mi Calm Calm - N/A   Clear
8:15 PM 46.4 °F 42.8 °F 87% 30.18 in 10.0 mi Calm Calm - N/A   Clear
8:35 PM 46.4 °F 41.0 °F 81% 30.18 in 10.0 mi Calm Calm - N/A   Clear
8:55 PM 44.6 °F 41.0 °F 87% 30.18 in 10.0 mi Calm Calm - N/A   Clear
9:15 PM 44.6 °F 41.0 °F 87% 30.19 in 10.0 mi Calm Calm - N/A   Clear
9:35 PM 42.8 °F 39.2 °F 87% 30.19 in 10.0 mi Calm Calm - N/A   Clear
9:55 PM 42.8 °F 39.2 °F 87% 30.19 in 10.0 mi Calm Calm - N/A   Clear
10:15 PM 41.0 °F 37.4 °F 87% 30.20 in 10.0 mi Calm Calm - N/A   Clear
10:35 PM 42.8 °F 39.2 °F 87% 30.19 in 10.0 mi Calm Calm - N/A   Clear
10:55 PM 41.0 °F 37.4 °F 87% 30.20 in 7.0 mi Calm Calm - N/A   Clear
11:15 PM 41.0 °F 37.4 °F 87% 30.20 in 5.0 mi Calm Calm - N/A   Clear
11:35 PM 41.0 °F 37.4 °F 87% 30.20 in 7.0 mi Calm Calm - N/A   Clear
11:55 PM 41.0 °F 37.4 °F 87% 30.19 in 5.0 mi Calm Calm - N/A   Clear